| time (UTC) | temp C | wind direction | speed KPH | gust KPH | rain 1hr cm | rain 24hr cm | rain mn cm | humidity % | barometer mb |
| 20260505234600 | 23 | 0 | 0.0 | 6.4 | 0.00 | 0.00 | 0.00 | 51 | 1013.4 |
| 20260505233041 | 23 | 252 | 3.2 | 12.9 | 0.00 | 0.00 | 0.00 | 49 | 1013.4 |
| 20260505231540 | 24 | 273 | 4.8 | 12.9 | 0.00 | 0.00 | 0.00 | 47 | 1013.6 |
| 20260505230036 | 24 | 160 | 3.2 | 12.9 | 0.00 | 0.00 | 0.00 | 46 | 1013.4 |
| 20260505224536 | 25 | 172 | 4.8 | 16.1 | 0.00 | 0.00 | 0.00 | 45 | 1013.4 |
| 20260505223042 | 25 | 225 | 3.2 | 16.1 | 0.00 | 0.00 | 0.00 | 44 | 1013.4 |
| 20260505221544 | 25 | 229 | 6.4 | 22.5 | 0.00 | 0.00 | 0.00 | 43 | 1013.3 |
| 20260505220042 | 26 | 201 | 9.7 | 27.4 | 0.00 | 0.00 | 0.00 | 43 | 1013.4 |
| 20260505214600 | 26 | 215 | 8.0 | 16.1 | 0.00 | 0.00 | 0.00 | 43 | 1013.3 |
| 20260505213056 | 26 | 258 | 3.2 | 20.9 | 0.00 | 0.00 | 0.00 | 40 | 1013.5 |
| 20260505211544 | 26 | 186 | 6.4 | 17.7 | 0.00 | 0.00 | 0.00 | 41 | 1013.5 |
| 20260505210042 | 26 | 182 | 6.4 | 25.7 | 0.00 | 0.00 | 0.00 | 41 | 1013.4 |
| 20260505204554 | 26 | 283 | 6.4 | 22.5 | 0.00 | 0.00 | 0.00 | 42 | 1013.8 |
| 20260505203043 | 26 | 158 | 6.4 | 17.7 | 0.00 | 0.00 | 0.00 | 41 | 1013.9 |
| 20260505201545 | 25 | 207 | 6.4 | 22.5 | 0.00 | 0.00 | 0.00 | 40 | 1014.1 |
| 20260505200057 | 25 | 191 | 8.0 | 24.1 | 0.00 | 0.00 | 0.00 | 43 | 1014.2 |
| 20260505194547 | 25 | 216 | 4.8 | 20.9 | 0.00 | 0.00 | 0.00 | 42 | 1014.5 |
| 20260505193048 | 25 | 202 | 8.0 | 20.9 | 0.00 | 0.00 | 0.00 | 41 | 1014.6 |
| 20260505191539 | 26 | 190 | 4.8 | 20.9 | 0.00 | 0.00 | 0.00 | 41 | 1014.9 |
| 20260505190042 | 25 | 215 | 11.3 | 20.9 | 0.00 | 0.00 | 0.00 | 41 | 1015.2 |
| 20260505184545 | 25 | 264 | 8.0 | 17.7 | 0.00 | 0.00 | 0.00 | 40 | 1015.4 |
| 20260505183039 | 25 | 175 | 9.7 | 24.1 | 0.00 | 0.00 | 0.00 | 39 | 1015.5 |
| 20260505181542 | 25 | 271 | 11.3 | 24.1 | 0.00 | 0.00 | 0.00 | 42 | 1015.5 |
| 20260505180100 | 25 | 212 | 8.0 | 16.1 | 0.00 | 0.00 | 0.00 | 43 | 1015.6 |
| 20260505174556 | 25 | 286 | 9.7 | 20.9 | 0.00 | 0.00 | 0.00 | 44 | 1015.8 |
| 20260505173046 | 24 | 167 | 8.0 | 19.3 | 0.00 | 0.00 | 0.00 | 44 | 1016.2 |
| 20260505171542 | 24 | 296 | 8.0 | 29.0 | 0.00 | 0.00 | 0.00 | 42 | 1016.4 |
| 20260505170041 | 24 | 263 | 9.7 | 27.4 | 0.00 | 0.00 | 0.00 | 41 | 1016.4 |
| 20260505164540 | 24 | 237 | 6.4 | 19.3 | 0.00 | 0.00 | 0.00 | 45 | 1016.3 |
| 20260505163035 | 23 | 215 | 8.0 | 17.7 | 0.00 | 0.00 | 0.00 | 50 | 1016.4 |
| 20260505161548 | 22 | 255 | 3.2 | 12.9 | 0.00 | 0.00 | 0.00 | 53 | 1016.5 |
| 20260505153052 | 21 | 169 | 3.2 | 12.9 | 0.00 | 0.00 | 0.00 | 58 | 1017.1 |
| 20260505151540 | 20 | 243 | 3.2 | 6.4 | 0.00 | 0.00 | 0.00 | 62 | 1017.2 |
| 20260505124537 | 15 | 0 | 0.0 | 8.0 | 0.00 | 0.00 | 0.00 | 81 | 1016.4 |
| 20260505123041 | 13 | 0 | 1.6 | 6.4 | 0.00 | 0.00 | 0.00 | 82 | 1016.4 |
| 20260505121538 | 12 | 187 | 1.6 | 6.4 | 0.00 | 0.00 | 0.00 | 83 | 1016.6 |
| 20260505120038 | 12 | 202 | 3.2 | 8.0 | 0.00 | 0.00 | 0.00 | 84 | 1016.3 |
| 20260505114541 | 10 | 0 | 0.0 | 0.0 | 0.00 | 0.00 | 0.00 | 88 | 1015.9 |
| 20260505113041 | 10 | 0 | 0.0 | 3.2 | 0.00 | 0.00 | 0.00 | 89 | 1015.7 |
| 20260505111542 | 8 | 93 | 0.0 | 3.2 | 0.00 | 0.00 | 0.00 | 90 | 1015.6 |
| 20260505101542 | 9 | 0 | 0.0 | 4.8 | 0.00 | 0.00 | 0.00 | 90 | 1015.4 |
| 20260505100038 | 9 | 201 | 0.0 | 1.6 | 0.00 | 0.00 | 0.00 | 90 | 1015.5 |
| 20260505094541 | 10 | 0 | 0.0 | 4.8 | 0.00 | 0.00 | 0.00 | 85 | 1015.5 |
| 20260505093038 | 10 | 300 | 0.0 | 4.8 | 0.00 | 0.00 | 0.00 | 89 | 1015.6 |
| 20260505091543 | 11 | 0 | 0.0 | 6.4 | 0.00 | 0.00 | 0.00 | 88 | 1015.4 |
| 20260505090047 | 11 | 0 | 0.0 | 3.2 | 0.00 | 0.00 | 0.00 | 89 | 1015.3 |
| 20260505084543 | 10 | 0 | 0.0 | 3.2 | 0.00 | 0.00 | 0.00 | 90 | 1015.4 |
| 20260505083039 | 11 | 317 | 0.0 | 4.8 | 0.00 | 0.00 | 0.00 | 90 | 1015.3 |
| 20260505081554 | 11 | 307 | 4.8 | 11.3 | 0.00 | 0.00 | 0.00 | 88 | 1015.3 |
| 20260505080051 | 11 | 0 | 0.0 | 1.6 | 0.00 | 0.00 | 0.00 | 87 | 1015.0 |
| 20260505074534 | 11 | 0 | 0.0 | 0.0 | 0.00 | 0.00 | 0.00 | 86 | 1014.8 |
| 20260505073046 | 12 | 0 | 0.0 | 0.0 | 0.00 | 0.00 | 0.00 | 84 | 1014.9 |
| 20260505071551 | 12 | 0 | 0.0 | 0.0 | 0.00 | 0.00 | 0.00 | 82 | 1015.0 |
| 20260505070045 | 13 | 310 | 0.0 | 4.8 | 0.00 | 0.00 | 0.00 | 78 | 1015.0 |
| 20260505064535 | 13 | 308 | 1.6 | 8.0 | 0.00 | 0.00 | 0.00 | 76 | 1015.1 |
| 20260505063042 | 13 | 286 | 1.6 | 4.8 | 0.00 | 0.00 | 0.00 | 76 | 1015.2 |
| 20260505061607 | 13 | 303 | 3.2 | 6.4 | 0.00 | 0.00 | 0.00 | 73 | 1015.3 |
| 20260505060042 | 14 | 273 | 4.8 | 8.0 | 0.00 | 0.00 | 0.00 | 70 | 1015.3 |
| 20260505054540 | 15 | 283 | 3.2 | 6.4 | 0.00 | 0.00 | 0.00 | 68 | 1015.3 |
| 20260505053043 | 15 | 290 | 1.6 | 6.4 | 0.00 | 0.00 | 0.00 | 66 | 1015.3 |
| 20260505051555 | 16 | 276 | 1.6 | 8.0 | 0.00 | 0.00 | 0.00 | 63 | 1015.2 |
| 20260505041535 | 16 | 0 | 0.0 | 3.2 | 0.00 | 0.00 | 0.00 | 62 | 1015.2 |
| 20260505040035 | 16 | 0 | 0.0 | 4.8 | 0.00 | 0.00 | 0.00 | 62 | 1015.4 |
| 20260505034533 | 16 | 0 | 0.0 | 0.0 | 0.00 | 0.00 | 0.00 | 65 | 1015.5 |
| 20260505033041 | 16 | 0 | 0.0 | 0.0 | 0.00 | 0.00 | 0.00 | 62 | 1015.5 |
| 20260505031540 | 17 | 0 | 0.0 | 0.0 | 0.00 | 0.00 | 0.00 | 60 | 1015.5 |
| 20260505030042 | 17 | 0 | 0.0 | 0.0 | 0.00 | 0.00 | 0.00 | 60 | 1015.6 |
| 20260505024548 | 17 | 0 | 0.0 | 3.2 | 0.00 | 0.00 | 0.00 | 58 | 1015.5 |
| 20260505023041 | 18 | 0 | 0.0 | 8.0 | 0.00 | 0.00 | 0.00 | 57 | 1015.5 |
| 20260505021542 | 18 | 191 | 0.0 | 4.8 | 0.00 | 0.00 | 0.00 | 57 | 1015.3 |
| 20260505020040 | 18 | 195 | 0.0 | 4.8 | 0.00 | 0.00 | 0.00 | 56 | 1015.3 |
| 20260505014539 | 18 | 0 | 0.0 | 4.8 | 0.00 | 0.00 | 0.00 | 57 | 1015.2 |
| 20260505013036 | 18 | 0 | 0.0 | 3.2 | 0.00 | 0.00 | 0.00 | 56 | 1015.0 |
| 20260505011537 | 18 | 0 | 0.0 | 0.0 | 0.00 | 0.00 | 0.00 | 58 | 1014.9 |
| 20260505010037 | 19 | 0 | 0.0 | 4.8 | 0.00 | 0.00 | 0.00 | 57 | 1014.6 |
| 20260505004543 | 20 | 0 | 0.0 | 3.2 | 0.00 | 0.00 | 0.00 | 54 | 1014.5 |
| 20260505003041 | 20 | 220 | 0.0 | 3.2 | 0.00 | 0.00 | 0.00 | 50 | 1014.4 |
| 20260505001541 | 21 | 255 | 0.0 | 3.2 | 0.00 | 0.00 | 0.00 | 50 | 1014.4 |
| 20260505000045 | 21 | 209 | 0.0 | 3.2 | 0.00 | 0.00 | 0.00 | 49 | 1014.4 |